Wind_Speed
9 10 10 9 8 8 7 6 4 4 6 15 10 11 7 10 7 9 15 16 18 19 23 20 18 19 18 19 19 19 19 20 21 23 26 28 32 34
11 10 10 10 9 10 8 12 11 11 8 14 14 13 12 13 16 13 15 18 22 21 22 23 19 19 22 25 24 23 23 22 23 24 26 27 30 33
13 11 11 11 11 11 10 11 11 13 14 16 20 19 16 18 20 18 19 20 23 25 22 19 20 26 28 25 25 25 25 24 22 25 26 27 29 32
16 16 15 14 14 13 10 13 12 12 15 15 19 18 18 20 17 17 21 21 22 22 23 28 32 31 26 25 28 29 28 26 26 27 26 28 30 32
16 17 15 15 13 14 12 13 14 15 13 18 18 19 21 23 26 21 22 24 24 29 31 32 31 28 27 30 33 33 31 30 30 29 31 30 30 33
18 17 16 16 16 15 16 16 18 17 19 17 18 19 19 23 26 17 19 25 27 25 25 25 29 30 33 34 36 35 32 33 33 34 32 34 40 42
17 16 16 18 19 18 16 18 19 18 21 20 20 20 21 20 20 23 24 23 22 22 24 26 28 27 27 30 32 33 31 30 33 35 39 43 48 49
18 18 19 18 15 16 18 17 22 26 22 20 20 20 21 20 21 20 21 24 18 23 25 27 27 30 32 34 35 33 33 32 42 53 52 50 50 51
19 18 19 20 18 15 15 15 18 24 26 22 19 21 20 18 20 20 21 22 25 26 26 29 27 28 29 34 33 31 40 44 49 56 57 56 56 54
20 20 19 19 17 15 16 21 21 21 20 20 22 21 19 18 17 20 23 25 27 27 22 23 26 29 30 31 33 37 49 51 50 53 51 50 49 50
23 20 17 18 20 23 22 20 19 20 18 22 22 19 20 21 20 18 19 20 21 21 21 26 27 27 28 31 36 37 44 51 51 50 48 47 48 46
24 20 21 24 22 19 17 13 14 16 17 17 13 17 21 23 23 26 23 21 21 21 23 21 26 28 23 32 32 39 43 46 44 47 46 44 39 39
16 18 16 19 17 16 14 10 13 15 14 15 18 21 19 19 19 15 12 16 21 24 26 27 28 28 23 28 30 37 41 43 39 40 36 34 33 37
11 13 14 19 12 11 13 14 16 16 15 17 20 18 18 19 18 16 20 24 23 26 32 33 27 26 25 28 30 40 46 41 37 37 36 39 39 39
16 16 12 10 8 10 15 16 14 12 15 17 16 17 18 18 18 21 20 20 21 24 25 15 22 25 21 25 28 36 32 32 34 30 36 37 32 31
12 5 5 5 8 9 5 9 9 11 12 13 15 16 17 18 19 19 21 22 23 23 19 23 26 24 25 28 31 34 29 17 36 36 38 29 21 24
11 9 8 10 12 14 14 13 12 12 12 12 14 16 17 18 18 19 20 22 21 20 20 23 26 23 23 25 29 29 29 31 33 33 34 16 14 20
6 11 13 12 12 10 10 9 10 10 11 11 13 16 16 17 17 18 19 19 19 20 19 20 24 22 25 24 16 24 26 29 34 34 30 21 12 21
8 11 10 9 10 9 9 10 11 10 8 13 14 15 15 15 16 17 17 18 18 19 19 20 21 18 9 11 19 23 28 30 31 28 28 24 17 16
8 8 7 7 8 8 9 9 10 10 12 13 13 14 13 13 14 15 16 16 18 19 14 15 16 19 11 9 11 28 32 31 29 27 29 28 20 16
6 5 6 7 8 7 8 8 9 11 10 12 11 11 11 12 13 15 16 17 18 17 16 17 9 14 17 15 14 20 33 34 31 28 29 24 14 7
6 6 5 5 6 6 8 8 10 10 10 9 9 9 10 11 13 15 16 18 17 17 17 16 4 19 22 10 15 23 27 35 35 31 32 29 14 6
7 7 6 5 6 6 8 9 10 9 8 7 8 9 10 12 13 14 16 17 17 17 18 20 6 9 16 15 15 19 25 28 33 31 33 30 26 29
Wind_Direction
251 242 258 267 268 278 289 334 279 260 277 305 324 222 257 266 235 287 291 288 291 291 292 289 284 284 285 289 291 294 293 297 295 288 277 270 262 260
252 255 257 274 277 269 263 267 277 297 305 300 301 310 322 300 291 277 274 278 280 284 284 282 281 281 286 290 289 285 288 294 297 294 287 280 271 262
247 263 256 262 268 282 300 314 316 307 319 318 319 312 315 300 284 279 278 283 282 280 282 272 272 280 286 285 286 286 286 290 296 299 294 290 284 272
239 238 243 246 232 245 266 265 272 287 277 294 291 295 291 295 278 278 274 280 285 283 281 272 274 274 274 280 286 286 284 284 288 295 297 297 292 284
235 236 238 245 253 263 276 283 285 286 299 296 301 302 303 288 289 285 294 271 282 279 275 266 264 265 265 277 280 280 279 276 279 284 287 292 296 290
234 237 238 246 252 252 260 266 265 264 276 282 278 278 275 281 267 287 287 287 280 284 297 292 281 272 272 275 274 272 270 271 274 278 278 280 285 288
236 233 237 243 251 260 264 270 288 290 290 296 296 294 289 302 316 305 299 299 298 289 292 289 296 297 293 290 288 274 271 279 279 281 285 282 281 279
228 228 236 242 242 252 263 271 279 277 275 277 285 289 294 296 295 294 290 291 299 289 294 296 294 293 289 282 276 280 282 281 288 290 286 281 275 272
228 232 238 246 245 248 258 268 275 273 261 262 266 273 291 291 293 292 288 295 289 292 295 288 288 282 282 281 283 288 295 293 290 287 285 280 273 266
238 236 236 247 245 253 266 269 263 263 266 264 265 267 276 284 288 287 286 281 282 277 277 287 295 285 288 290 295 293 294 292 288 287 284 280 272 266
237 243 240 241 254 269 263 251 249 259 268 270 267 265 278 288 281 278 282 288 291 293 294 282 286 290 296 298 298 293 284 287 288 285 283 277 275 265
233 235 235 257 260 253 242 246 260 271 277 279 270 283 281 279 277 262 258 278 296 294 292 303 307 304 303 294 296 291 292 292 284 284 281 277 268 259
228 240 236 249 248 240 247 252 266 274 275 283 278 276 279 287 284 291 259 273 290 293 300 307 299 298 295 304 303 304 295 287 284 284 278 272 267 252
257 263 238 230 221 240 251 252 258 269 274 275 274 284 292 294 298 306 301 291 282 275 288 285 282 291 302 308 311 315 312 307 289 278 273 273 268 251
248 258 212 197 237 260 263 260 271 272 268 276 293 299 300 303 303 290 289 295 291 294 292 311 308 310 305 308 305 309 307 322 314 302 293 271 254 226
224 206 201 228 239 248 239 248 254 256 285 301 292 293 301 300 303 305 308 309 307 299 315 315 320 320 309 313 305 307 307 316 313 308 309 292 220 207
194 202 228 235 244 227 219 226 234 262 277 290 297 304 303 304 307 313 313 307 305 311 316 318 325 325 321 317 304 303 308 321 322 320 324 298 209 206
219 257 269 273 276 286 287 276 276 280 279 292 305 299 304 309 313 316 309 314 313 311 320 325 328 332 332 329 323 309 320 327 327 326 329 306 258 232
247 272 278 289 293 295 291 287 290 294 316 296 294 302 304 309 313 315 316 319 323 319 330 344 335 355 330 321 311 342 336 338 335 334 336 319 282 256
253 276 289 287 284 288 289 290 293 299 300 303 305 301 305 313 314 315 320 326 324 314 321 342 349 347 329 311 312 329 350 350 344 340 337 327 305 289
271 256 274 290 288 279 280 288 297 295 301 300 292 300 313 314 316 320 321 323 316 327 337 330 346 353 357 338 341 342 349 354 358 355 348 337 322 273
257 257 269 279 281 278 283 291 288 285 287 289 302 310 310 316 318 322 326 325 330 340 345 343 330 10 9 343 339 336 345 355 0 1 12 8 354 328
238 251 275 268 267 268 275 280 282 281 288 295 304 310 318 316 322 324 325 330 337 340 349 321 348 27 13 357 341 341 352 354 357 358 1 10 9 19
Height
834 835 835 832 830 829 829 830 832 834 831 827 826 826 825 827 826 828 829 828 826 823 823 822 821 820 820 819 817 816 814 812 811 810 809 809 810 811
831 831 832 831 830 828 829 828 827 826 825 825 825 825 825 825 825 824 825 824 821 818 817 816 815 815 814 813 812 810 809 807 806 804 803 802 802 802
830 829 829 829 829 827 826 825 825 825 823 823 823 823 823 822 821 820 819 818 816 812 810 810 809 808 807 807 806 805 802 801 800 799 797 796 795 795
823 824 825 825 825 825 824 823 823 823 823 820 819 818 818 817 814 813 812 811 809 806 804 801 800 800 799 798 798 797 795 794 793 792 790 789 788 787
818 820 821 822 823 822 821 821 821 819 818 818 815 815 815 813 810 808 806 805 803 800 795 792 792 792 790 789 788 787 786 786 784 783 783 782 781 780
813 815 816 818 820 820 820 820 818 817 815 813 810 810 809 806 803 800 800 799 796 792 789 787 786 782 780 780 778 777 776 775 774 773 773 772 771 770
808 810 812 813 815 816 816 815 815 814 811 809 806 804 801 799 799 798 795 792 790 787 784 782 779 776 774 773 769 767 765 765 765 764 762 761 760 758
802 803 805 807 807 807 808 809 812 812 810 808 804 801 800 798 796 796 793 789 783 785 780 776 775 770 769 765 761 760 758 756 754 750 748 746 745 744
798 799 800 801 802 802 802 802 801 804 803 802 800 798 796 794 794 791 787 785 781 779 778 770 770 762 759 755 752 749 746 744 742 737 733 730 728 728
790 792 794 797 798 797 796 796 796 795 796 794 793 792 791 790 789 787 784 780 775 771 769 762 761 755 751 747 744 741 738 733 727 721 716 713 711 710
785 788 789 790 792 790 788 787 788 788 789 788 786 786 786 785 784 782 778 772 766 765 765 759 753 746 743 738 736 732 726 719 710 704 699 696 694 695
780 781 783 784 783 782 783 784 785 785 784 783 782 781 779 776 774 773 770 767 763 760 757 753 747 743 735 732 728 721 710 700 695 689 684 681 680 680
774 776 777 777 778 779 780 781 781 780 780 780 778 773 770 769 767 765 765 763 759 754 752 750 744 738 736 723 715 709 700 687 680 673 668 665 665 666
769 772 772 771 774 776 776 775 776 777 777 775 770 766 765 764 762 762 761 759 755 751 746 743 738 735 727 717 705 692 685 675 667 659 654 649 648 649
767 768 769 771 771 773 774 774 774 775 773 768 765 765 764 762 761 758 754 751 748 744 739 736 734 728 723 715 705 692 681 668 661 651 643 636 633 633
765 767 768 768 769 770 770 770 770 771 768 767 767 764 762 760 757 754 750 747 743 738 734 732 728 724 718 712 703 688 678 670 657 646 635 622 621 625
763 764 765 764 762 762 763 765 765 765 765 764 763 761 759 757 754 751 748 745 739 734 731 728 723 718 714 707 696 686 675 665 656 644 632 619 619 621
761 760 757 756 756 757 759 760 761 762 762 762 761 760 757 755 752 749 745 742 737 732 726 724 720 714 707 699 693 684 675 665 652 641 630 623 619 619
758 754 754 755 756 757 758 759 760 760 760 761 759 758 755 752 749 746 743 739 734 730 726 723 718 714 708 700 692 685 676 664 652 640 632 626 617 615
754 752 752 754 756 758 759 759 759 759 758 758 757 756 753 750 747 744 741 737 733 727 723 720 717 714 710 702 693 684 676 665 655 644 634 624 616 612
748 750 753 755 755 757 758 759 759 759 758 758 756 753 751 749 746 743 739 734 730 723 719 716 716 712 706 701 693 684 674 668 661 651 641 628 618 612
748 751 753 754 756 757 758 758 758 757 756 755 753 752 750 748 744 741 737 732 726 723 720 715 713 709 705 703 696 688 678 669 660 653 648 640 635 625
749 751 752 753 755 756 757 758 756 754 754 754 752 751 749 746 743 740 735 730 725 722 720 714 709 709 708 704 699 691 684 675 665 653 647 642 635 627